Voltar ao catálogo

FENGYUN 1C DEB

AtivoPO
NORAD 41009·DEBRIS·🇨🇳 China

Lançado May 10, 1999 de Taiyuan Satellite Launch Center

Loading…

Próximas Passagens (próximas 24 horas)

TLE

AtualizadoSource: Space-Track

Época: Sep 13, 2026, 05:35 UTC

1 41009U 99025EXP 26256.23319517  .00005155  00000-0  12009-2 0  9991
2 41009  99.2071 262.9134 0012293 348.6517  11.4398 14.55269143629746

Acompanhe FENGYUN 1C DEB em tempo real com AllMySat

Download on the App Store